This is the latest recevied weather packets stored in our database for station/object KQ4NAL. If no packets are shown the sender has not sent any weather packets the latest 10 day(s).
| Time | Temp. | Humidity | Pressure | Rain* | Wind** | Luminosity | Snow |
|---|---|---|---|---|---|---|---|
| 1778082712 | 12.78° C | 69% | 1014.2 hPa | 0 mm | - | 645 W/m² | - |
| 1778081574 | 12.78° C | 70% | 1014.2 hPa | 0 mm | - | 523 W/m² | - |
| 1778081271 | 12.78° C | 70% | 1014.2 hPa | 0 mm | - | 503 W/m² | - |
| 1778080968 | 12.78° C | 71% | 1014.2 hPa | 0 mm | - | 631 W/m² | - |
| 1778080667 | 12.78° C | 69% | 1014.2 hPa | 0 mm | - | 890 W/m² | - |
| 1778080363 | 12.22° C | 71% | 1013.8 hPa | 0 mm | - | 910 W/m² | - |
| 1778080060 | 12.22° C | 73% | 1013.9 hPa | 0 mm | - | 920 W/m² | - |
| 1778079757 | 11.67° C | 75% | 1013.8 hPa | 0 mm | - | 903 W/m² | - |
| 1778079454 | 11.67° C | 75% | 1013.7 hPa | 0 mm | - | 431 W/m² | - |
| 1778079150 | 11.11° C | 75% | 1013.7 hPa | 0 mm | - | 435 W/m² | - |
| 1778078848 | 11.67° C | 76% | 1013.9 hPa | 0 mm | - | 477 W/m² | - |
| 1778078545 | 11.67° C | 79% | 1013.5 hPa | 0 mm | - | 385 W/m² | - |
| 1778078242 | 11.11° C | 79% | 1013.4 hPa | 0 mm | - | 431 W/m² | - |
| 1778077940 | 11.67° C | 80% | 1013.5 hPa | 0 mm | - | 655 W/m² | - |
| 1778077638 | 11.11° C | 80% | 1013.5 hPa | 0 mm | - | 371 W/m² | - |
| 1778077336 | 11.11° C | 80% | 1013.4 hPa | 0 mm | - | 408 W/m² | - |
| 1778077034 | 11.11° C | 81% | 1013.2 hPa | 0 mm | - | 644 W/m² | - |
| 1778076732 | 10.56° C | 82% | 1013 hPa | 0 mm | - | 594 W/m² | - |
| 1778076429 | 10.56° C | 83% | 1013.1 hPa | 0 mm | - | 501 W/m² | - |
| 1778076126 | 10° C | 85% | 1013.1 hPa | 0 mm | - | 466 W/m² | - |
| 1778075823 | 10° C | 87% | 1012.6 hPa | 0 mm | - | 399 W/m² | - |
| 1778075519 | 10° C | 90% | 1012.8 hPa | 0 mm | - | 347 W/m² | - |
| 1778075216 | 9.44° C | 91% | 1013.1 hPa | 0 mm | - | 288 W/m² | - |
| 1778074912 | 9.44° C | 94% | 1013.1 hPa | 0 mm | - | 266 W/m² | - |
| 1778074609 | 8.89° C | 95% | 1013.2 hPa | 0 mm | - | 211 W/m² | - |
* Rain latest hour (hover to see other rain measurements)
** Current wind speed in m/s (hover to see current wind gust speed)